User: anonymous   Login
Location: Oshawa
(43.9000°N, 78.8670°W)
Time: 00:57:55
(UTC-04:00)
Language:

SPOT 5 - Orbit

View from above orbital plane
View from above orbital plane
View from above satellite
View from above satellite

Ground track
Ground track

The orbit data is extracted from the following two-line orbital elements,

1 27421U 02021A   17235.75289674  .00000036  00000-0  19153-4 0  9999
2 27421  98.4010 299.1014 0136419 121.3370 240.1262 14.51876606795470
Epoch (UTC): 23 August 2017 18:04:10
Eccentricity: 0.0136419
inclination: 98.4010°
perigee height: 623 km
apogee height: 816 km
right ascension of ascending node: 299.1014°
argument of perigee: 121.3370°
revolutions per day: 14.51876606
mean anomaly at epoch: 240.1262°
orbit number at epoch: 79547

The dashed part of the orbit path shows where the satellite is in the earth's shadow,  

DLR